Theta_e
313 315 314 311 309 308 307 305 305 305 304 304 304 303 303 303 303 303 303 303 303 304 304 305 307 307 308 312 319 324 329 337
311 311 311 312 311 305 303 303 303 302 302 302 302 305 303 303 303 302 301 302 302 302 302 303 303 303 305 307 307 309 315 330
310 310 309 309 308 305 305 303 302 302 303 302 304 305 304 304 301 301 301 301 301 301 301 302 302 305 305 304 305 310 313 315
309 309 309 308 306 307 306 305 304 304 303 303 303 303 301 301 302 300 301 300 301 301 302 303 304 306 307 306 308 309 311 312
308 308 307 307 306 306 305 303 303 303 302 302 302 302 302 302 302 302 302 300 302 302 303 303 304 305 305 306 306 307 308 309
307 306 306 306 305 304 303 303 302 302 301 300 301 301 301 301 301 301 300 300 301 301 302 302 302 303 303 304 305 306 307 308
306 306 305 305 304 303 302 302 301 300 300 299 299 300 300 300 301 300 299 299 300 300 301 301 302 302 303 303 304 304 305 306
306 305 304 303 303 302 301 300 300 299 299 298 298 298 299 299 300 299 298 298 299 299 300 300 301 302 303 303 303 303 304 305
305 304 303 303 302 301 300 299 299 298 297 297 297 297 297 298 298 298 297 298 298 299 299 300 301 301 302 302 303 304 304 305
304 302 303 302 301 300 299 298 297 297 296 296 296 295 295 297 297 297 296 297 297 297 297 299 299 300 301 301 302 304 304 305
304 303 302 301 300 299 298 297 296 296 296 295 295 294 294 295 295 295 295 295 296 295 296 297 298 299 299 299 302 303 305 306
303 303 302 301 300 299 298 297 296 295 294 294 293 293 292 293 294 294 294 295 294 294 294 295 297 296 296 299 301 304 306 306
303 302 301 300 300 300 299 298 296 294 293 293 292 292 291 292 292 293 293 294 293 293 293 293 296 295 296 297 303 305 306 302
302 301 299 298 298 297 297 297 294 293 292 292 291 290 290 290 291 291 291 292 293 292 291 292 294 294 294 296 304 305 306 301
302 300 298 297 295 295 295 294 293 293 292 291 290 289 288 289 290 290 291 291 291 291 290 290 291 293 293 293 297 300 295 303
301 299 297 295 294 294 294 294 294 291 290 289 289 288 287 287 288 289 290 290 290 289 290 289 289 291 291 292 293 293 295 296
300 298 296 293 292 292 293 292 291 290 289 289 289 288 287 286 286 288 289 289 289 289 289 289 289 289 289 289 291 292 295 292
299 297 294 292 291 291 291 291 290 290 289 289 288 288 287 286 285 285 286 287 288 288 289 289 288 288 287 288 288 289 289 289
299 295 292 291 290 290 290 289 289 288 288 288 288 288 287 286 285 284 284 285 286 286 287 288 288 287 286 287 287 287 287 287
296 294 293 290 289 288 288 288 287 287 286 287 287 287 286 285 285 284 284 284 284 285 285 286 286 286 286 286 286 286 286 286
Wind_Speed
11 10 12 13 13 12 12 12 12 13 13 12 12 11 11 11 12 11 11 13 14 14 15 16 18 20 20 20 19 18 17 19
11 9 9 10 10 12 12 13 13 13 13 13 13 15 15 15 13 14 12 13 14 15 16 17 18 18 20 22 23 22 19 17
10 9 9 9 8 9 10 12 12 13 13 12 12 11 12 12 14 15 15 16 16 16 16 16 16 16 19 20 21 15 16 19
9 9 9 7 6 7 8 9 10 11 12 12 11 11 12 12 13 18 17 19 16 20 19 18 15 14 14 17 13 14 17 19
9 9 8 7 6 6 6 6 7 9 13 13 11 9 10 10 11 12 14 16 16 18 16 15 17 16 15 15 17 17 17 18
10 9 8 7 6 6 7 8 9 10 12 15 13 11 12 13 13 14 15 16 17 16 16 18 17 16 16 17 17 17 18 19
10 9 8 7 8 7 9 10 11 12 13 15 15 13 14 14 15 16 16 17 18 18 18 19 19 18 18 18 19 20 19 21
10 9 9 8 9 10 9 10 10 11 12 14 16 15 15 15 15 16 17 18 18 18 19 20 20 19 20 19 20 21 20 21
11 9 9 9 9 9 10 9 9 10 10 12 13 13 13 13 14 15 16 17 18 18 19 19 19 20 21 21 21 21 21 21
10 9 9 8 8 8 7 7 7 8 8 10 13 13 13 12 12 14 17 16 16 17 19 20 20 21 21 23 23 21 20 19
10 9 8 8 8 7 7 7 7 8 8 9 11 12 13 12 12 13 15 15 15 17 18 18 22 21 23 26 22 21 16 13
9 7 6 5 5 5 5 5 6 7 7 8 10 10 12 12 11 13 14 13 15 16 18 18 17 20 25 23 24 14 12 9
10 7 5 4 3 2 1 2 4 6 6 7 8 9 11 11 11 13 13 12 13 15 15 18 17 18 20 26 16 11 2 20
11 8 6 4 3 2 2 2 3 4 4 5 7 8 10 10 11 11 12 12 13 15 16 17 15 18 15 15 7 10 2 20
12 9 7 5 4 3 3 3 2 2 3 3 5 7 8 9 11 11 12 12 13 14 15 15 14 16 14 8 4 4 17 7
13 10 8 5 4 4 3 1 2 3 2 4 4 7 9 11 10 10 11 11 12 13 14 14 13 14 15 15 10 11 3 7
14 11 9 7 5 4 3 3 4 3 2 3 5 6 9 10 10 11 11 10 11 12 13 14 13 11 12 15 12 16 3 9
16 14 10 8 6 5 3 5 4 3 3 3 5 6 7 10 11 11 10 10 11 11 11 11 12 11 12 12 13 9 16 11
16 14 11 9 7 6 5 6 5 5 3 4 5 6 7 10 11 10 10 10 10 10 10 10 11 11 13 12 11 12 14 15
18 16 12 10 9 8 5 5 5 5 5 5 6 6 7 8 8 8 9 10 10 10 10 10 11 11 13 13 11 12 14 15
Wind_Direction
114 114 96 90 88 85 82 71 57 49 45 39 31 24 16 10 5 354 344 333 328 322 312 303 292 286 282 279 278 280 280 270
118 116 109 98 83 82 73 66 60 51 43 37 35 28 22 12 16 353 354 345 337 328 322 314 307 304 289 280 275 276 286 272
118 117 107 103 96 75 53 54 51 45 38 35 30 25 18 14 355 354 352 349 345 341 336 332 327 334 320 302 287 282 271 273
118 112 106 97 90 77 62 54 52 50 39 33 30 24 12 13 355 357 354 348 349 344 343 352 342 327 319 320 304 288 280 272
111 102 97 97 91 83 69 59 53 40 36 33 23 22 12 6 359 352 349 345 345 343 341 339 333 327 319 313 303 300 285 275
119 113 105 101 95 84 74 62 53 43 31 29 23 17 10 6 0 354 352 348 344 342 338 333 329 323 317 312 306 299 290 282
122 112 99 90 85 74 64 53 45 39 31 22 23 16 8 3 359 355 351 347 344 340 336 333 329 326 320 314 308 300 294 287
117 104 96 89 79 71 65 54 43 38 30 24 19 17 7 2 358 354 348 346 341 338 335 332 327 324 319 314 306 299 294 288
122 111 103 93 82 70 62 53 48 39 31 22 21 17 8 3 358 353 347 345 341 339 337 332 328 325 319 316 310 302 296 291
126 117 103 95 89 82 75 61 56 44 32 20 17 12 9 4 359 352 346 346 344 342 339 334 331 326 321 317 309 303 299 295
127 125 123 117 105 97 83 71 58 44 32 20 12 7 6 6 358 350 352 349 348 344 340 337 332 328 322 316 309 303 298 299
137 132 123 116 109 103 83 67 56 49 38 25 17 7 6 4 355 354 355 349 348 346 341 340 331 329 322 316 313 299 294 302
153 139 136 137 132 130 118 79 63 45 33 28 20 10 6 4 0 353 353 348 348 347 346 343 341 344 333 332 322 308 279 339
154 145 131 119 114 96 85 90 76 63 43 27 21 18 11 11 7 353 352 350 353 354 357 353 348 353 342 320 335 321 266 327
160 150 139 121 115 115 116 102 110 112 47 28 15 21 17 22 10 359 357 360 355 355 356 359 348 354 359 13 332 334 332 306
162 155 143 130 117 130 168 194 159 82 42 31 28 26 27 22 11 7 2 1 358 358 357 359 358 354 356 347 324 293 315 314
166 160 154 144 138 138 164 136 102 95 67 44 43 32 37 20 14 11 6 1 358 1 4 9 5 3 357 350 345 331 321 311
172 168 158 143 142 127 145 121 104 98 57 46 44 30 26 20 19 14 5 2 359 359 360 3 6 5 6 9 1 357 330 328
172 169 158 153 145 137 133 112 105 88 72 56 56 40 27 19 19 13 8 5 4 2 2 359 2 2 5 8 1 354 339 328
173 171 163 162 153 139 128 113 103 89 72 63 57 51 40 25 16 14 12 12 10 10 8 6 4 5 3 7 359 355 349 341